| time (UTC) | temp C | wind direction | speed KPH | gust KPH | rain 1hr cm | rain 24hr cm | rain mn cm | humidity % | barometer mb |
| 20260506092218 | 17 | 227 | 9.7 | 17.7 | 0.00 | 0.00 | 0.00 | 79 | 1013.2 |
| 20260506091715 | 17 | 227 | 4.8 | 9.7 | 0.00 | 0.00 | 0.00 | 79 | 1013.3 |
| 20260506091212 | 17 | 245 | 8.0 | 14.5 | 0.00 | 0.00 | 0.00 | 79 | 1013.3 |
| 20260506090710 | 17 | 253 | 8.0 | 16.1 | 0.00 | 0.00 | 0.00 | 79 | 1013.5 |
| 20260506090207 | 17 | 309 | 12.9 | 16.1 | 0.00 | 0.00 | 0.00 | 79 | 1013.8 |
| 20260506085704 | 17 | 217 | 4.8 | 19.3 | 0.00 | 0.00 | 0.00 | 79 | 1013.5 |
| 20260506085200 | 17 | 212 | 6.4 | 9.7 | 0.00 | 0.00 | 0.00 | 79 | 1013.7 |
| 20260506084656 | 17 | 236 | 3.2 | 11.3 | 0.00 | 0.00 | 0.00 | 79 | 1013.7 |
| 20260506084153 | 17 | 244 | 4.8 | 12.9 | 0.00 | 0.00 | 0.00 | 79 | 1013.5 |
| 20260506083650 | 17 | 203 | 3.2 | 9.7 | 0.00 | 0.00 | 0.00 | 79 | 1013.8 |
| 20260506083148 | 17 | 264 | 4.8 | 14.5 | 0.00 | 0.00 | 0.00 | 79 | 1013.6 |
| 20260506082644 | 17 | 250 | 6.4 | 27.4 | 0.00 | 0.00 | 0.00 | 79 | 1013.5 |
| 20260506082139 | 17 | 273 | 4.8 | 20.9 | 0.00 | 0.00 | 0.00 | 79 | 1013.5 |
| 20260506081638 | 17 | 248 | 9.7 | 19.3 | 0.00 | 0.00 | 0.00 | 79 | 1013.8 |
| 20260506081135 | 17 | 214 | 8.0 | 9.7 | 0.00 | 0.00 | 0.00 | 79 | 1013.5 |
| 20260506080633 | 17 | 257 | 4.8 | 12.9 | 0.00 | 0.00 | 0.00 | 80 | 1013.6 |
| 20260506080129 | 17 | 283 | 4.8 | 11.3 | 0.00 | 0.00 | 0.00 | 80 | 1013.7 |
| 20260506073113 | 17 | 236 | 4.8 | 19.3 | 0.00 | 0.00 | 0.00 | 79 | 1013.7 |
| 20260506072610 | 18 | 238 | 4.8 | 11.3 | 0.00 | 0.00 | 0.00 | 79 | 1013.8 |
| 20260506072108 | 17 | 241 | 9.7 | 22.5 | 0.00 | 0.00 | 0.00 | 79 | 1013.8 |
| 20260506071605 | 18 | 200 | 4.8 | 11.3 | 0.00 | 0.00 | 0.00 | 79 | 1014.0 |
| 20260506071102 | 18 | 300 | 4.8 | 16.1 | 0.00 | 0.00 | 0.00 | 79 | 1013.8 |
| 20260506070559 | 18 | 227 | 11.3 | 11.3 | 0.00 | 0.00 | 0.00 | 79 | 1014.0 |
| 20260506062034 | 18 | 232 | 9.7 | 30.6 | 0.00 | 0.00 | 0.00 | 78 | 1014.3 |
| 20260506061529 | 18 | 264 | 6.4 | 22.5 | 0.00 | 0.00 | 0.00 | 78 | 1014.5 |
| 20260506061027 | 18 | 258 | 8.0 | 22.5 | 0.00 | 0.00 | 0.00 | 78 | 1014.3 |
| 20260506060526 | 18 | 228 | 3.2 | 17.7 | 0.00 | 0.00 | 0.00 | 78 | 1014.6 |
| 20260506050954 | 19 | 247 | 4.8 | 20.9 | 0.00 | 0.00 | 0.00 | 74 | 1014.9 |
| 20260506050452 | 19 | 214 | 6.4 | 16.1 | 0.00 | 0.00 | 0.00 | 73 | 1014.7 |
| 20260506044942 | 19 | 295 | 4.8 | 11.3 | 0.00 | 0.00 | 0.00 | 72 | 1014.8 |
| 20260506044441 | 20 | 289 | 6.4 | 17.7 | 0.00 | 0.00 | 0.00 | 71 | 1014.9 |
| 20260506043937 | 20 | 188 | 4.8 | 9.7 | 0.00 | 0.00 | 0.00 | 71 | 1014.8 |
| 20260506043434 | 20 | 235 | 8.0 | 20.9 | 0.00 | 0.00 | 0.00 | 70 | 1014.5 |
| 20260506042932 | 20 | 241 | 9.7 | 19.3 | 0.00 | 0.00 | 0.00 | 70 | 1014.3 |
| 20260506042432 | 20 | 239 | 8.0 | 30.6 | 0.00 | 0.00 | 0.00 | 69 | 1014.5 |
| 20260506041929 | 20 | 228 | 14.5 | 24.1 | 0.00 | 0.00 | 0.00 | 69 | 1014.5 |
| 20260506041427 | 20 | 217 | 4.8 | 9.7 | 0.00 | 0.00 | 0.00 | 69 | 1014.8 |
| 20260506040924 | 20 | 297 | 4.8 | 24.1 | 0.00 | 0.00 | 0.00 | 68 | 1014.7 |
| 20260506040421 | 20 | 238 | 14.5 | 19.3 | 0.00 | 0.00 | 0.00 | 68 | 1014.9 |
| 20260506035917 | 20 | 302 | 3.2 | 9.7 | 0.00 | 0.00 | 0.00 | 68 | 1014.7 |
| 20260506035415 | 20 | 234 | 9.7 | 17.7 | 0.00 | 0.00 | 0.00 | 67 | 1014.6 |
| 20260506034911 | 20 | 278 | 9.7 | 19.3 | 0.00 | 0.00 | 0.00 | 67 | 1014.8 |
| 20260506034409 | 20 | 228 | 6.4 | 12.9 | 0.00 | 0.00 | 0.00 | 66 | 1014.8 |
| 20260506033905 | 21 | 328 | 4.8 | 12.9 | 0.00 | 0.00 | 0.00 | 66 | 1014.7 |
| 20260506033403 | 21 | 240 | 6.4 | 16.1 | 0.00 | 0.00 | 0.00 | 65 | 1014.8 |
| 20260506032859 | 21 | 238 | 8.0 | 16.1 | 0.00 | 0.00 | 0.00 | 65 | 1014.7 |
| 20260506032356 | 21 | 279 | 3.2 | 16.1 | 0.00 | 0.00 | 0.00 | 64 | 1014.9 |
| 20260506031853 | 21 | 235 | 4.8 | 11.3 | 0.00 | 0.00 | 0.00 | 64 | 1014.7 |
| 20260506031350 | 21 | 125 | 3.2 | 16.1 | 0.00 | 0.00 | 0.00 | 64 | 1014.7 |
| 20260506030848 | 21 | 242 | 6.4 | 33.8 | 0.00 | 0.00 | 0.00 | 63 | 1014.8 |
| 20260506030346 | 21 | 220 | 11.3 | 24.1 | 0.00 | 0.00 | 0.00 | 63 | 1014.6 |
| 20260506025843 | 21 | 68 | 6.4 | 19.3 | 0.00 | 0.00 | 0.00 | 63 | 1014.6 |
| 20260506025339 | 21 | 292 | 4.8 | 19.3 | 0.00 | 0.00 | 0.00 | 62 | 1014.6 |
| 20260506024836 | 21 | 306 | 4.8 | 9.7 | 0.00 | 0.00 | 0.00 | 62 | 1014.8 |
| 20260506024333 | 21 | 231 | 3.2 | 8.0 | 0.00 | 0.00 | 0.00 | 62 | 1014.6 |
| 20260506023829 | 21 | 216 | 3.2 | 12.9 | 0.00 | 0.00 | 0.00 | 61 | 1014.6 |
| 20260506023326 | 21 | 223 | 6.4 | 19.3 | 0.00 | 0.00 | 0.00 | 61 | 1014.7 |
| 20260506022823 | 21 | 296 | 3.2 | 11.3 | 0.00 | 0.00 | 0.00 | 61 | 1014.5 |
| 20260506022320 | 21 | 258 | 8.0 | 16.1 | 0.00 | 0.00 | 0.00 | 61 | 1014.6 |
| 20260506021819 | 21 | 264 | 8.0 | 19.3 | 0.00 | 0.00 | 0.00 | 60 | 1014.6 |
| 20260506021315 | 21 | 288 | 6.4 | 9.7 | 0.00 | 0.00 | 0.00 | 60 | 1014.5 |
| 20260506020812 | 22 | 244 | 3.2 | 6.4 | 0.00 | 0.00 | 0.00 | 60 | 1014.5 |
| 20260506020310 | 22 | 235 | 6.4 | 8.0 | 0.00 | 0.00 | 0.00 | 59 | 1014.5 |
| 20260506015807 | 22 | 290 | 3.2 | 8.0 | 0.00 | 0.00 | 0.00 | 59 | 1014.1 |
| 20260506015306 | 22 | 242 | 4.8 | 11.3 | 0.00 | 0.00 | 0.00 | 59 | 1014.2 |
| 20260506014801 | 22 | 240 | 1.6 | 14.5 | 0.00 | 0.00 | 0.00 | 58 | 1014.0 |
| 20260506014258 | 22 | 253 | 6.4 | 12.9 | 0.00 | 0.00 | 0.00 | 58 | 1014.2 |
| 20260506013755 | 22 | 231 | 4.8 | 14.5 | 0.00 | 0.00 | 0.00 | 57 | 1013.9 |
| 20260506013252 | 22 | 299 | 3.2 | 14.5 | 0.00 | 0.00 | 0.00 | 57 | 1013.9 |
| 20260506012748 | 22 | 304 | 3.2 | 8.0 | 0.00 | 0.00 | 0.00 | 57 | 1014.1 |
| 20260506012245 | 22 | 227 | 4.8 | 6.4 | 0.00 | 0.00 | 0.00 | 57 | 1014.0 |
| 20260506011743 | 22 | 240 | 4.8 | 8.0 | 0.00 | 0.00 | 0.00 | 56 | 1014.0 |
| 20260506011239 | 22 | 237 | 4.8 | 6.4 | 0.00 | 0.00 | 0.00 | 56 | 1013.9 |
| 20260506010737 | 22 | 206 | 6.4 | 14.5 | 0.00 | 0.00 | 0.00 | 56 | 1013.6 |
| 20260506010234 | 22 | 226 | 3.2 | 6.4 | 0.00 | 0.00 | 0.00 | 55 | 1013.8 |
| 20260506005731 | 22 | 255 | 3.2 | 8.0 | 0.00 | 0.00 | 0.00 | 55 | 1013.7 |
| 20260506005228 | 22 | 253 | 0.0 | 9.7 | 0.00 | 0.00 | 0.00 | 54 | 1013.4 |
| 20260506004724 | 22 | 277 | 6.4 | 8.0 | 0.00 | 0.00 | 0.00 | 54 | 1013.4 |
| 20260506004222 | 22 | 218 | 0.0 | 8.0 | 0.00 | 0.00 | 0.00 | 53 | 1013.7 |
| 20260506003717 | 23 | 212 | 6.4 | 9.7 | 0.00 | 0.00 | 0.00 | 53 | 1013.6 |
| 20260506003214 | 23 | 248 | 4.8 | 12.9 | 0.00 | 0.00 | 0.00 | 52 | 1013.5 |
| 20260506002710 | 23 | 280 | 3.2 | 8.0 | 0.00 | 0.00 | 0.00 | 52 | 1013.7 |
| 20260506002206 | 23 | 258 | 0.0 | 4.8 | 0.00 | 0.00 | 0.00 | 52 | 1013.3 |
| 20260506001702 | 23 | 237 | 3.2 | 4.8 | 0.00 | 0.00 | 0.00 | 52 | 1013.3 |
| 20260506001200 | 23 | 239 | 4.8 | 8.0 | 0.00 | 0.00 | 0.00 | 52 | 1013.3 |
| 20260506000657 | 23 | 211 | 3.2 | 6.4 | 0.00 | 0.00 | 0.00 | 51 | 1013.3 |
| 20260506000154 | 23 | 216 | 0.0 | 12.9 | 0.00 | 0.00 | 0.00 | 51 | 1013.2 |
| 20260505235652 | 23 | 241 | 1.6 | 8.0 | 0.00 | 0.00 | 0.00 | 50 | 1013.2 |
| 20260505235149 | 23 | 265 | 3.2 | 9.7 | 0.00 | 0.00 | 0.00 | 50 | 1013.2 |
| 20260505234646 | 24 | 180 | 0.0 | 4.8 | 0.00 | 0.00 | 0.00 | 49 | 1013.3 |
| 20260505234143 | 24 | 175 | 3.2 | 12.9 | 0.00 | 0.00 | 0.00 | 49 | 1013.1 |
| 20260505233640 | 24 | 264 | 3.2 | 9.7 | 0.00 | 0.00 | 0.00 | 48 | 1013.1 |
| 20260505233137 | 25 | 220 | 4.8 | 16.1 | 0.00 | 0.00 | 0.00 | 48 | 1013.3 |
| 20260505232635 | 25 | 268 | 4.8 | 9.7 | 0.00 | 0.00 | 0.00 | 47 | 1013.4 |
| 20260505232132 | 25 | 224 | 11.3 | 19.3 | 0.00 | 0.00 | 0.00 | 47 | 1013.2 |
| 20260505231629 | 25 | 244 | 6.4 | 14.5 | 0.00 | 0.00 | 0.00 | 47 | 1013.1 |
| 20260505231128 | 25 | 265 | 6.4 | 6.4 | 0.00 | 0.00 | 0.00 | 47 | 1013.2 |
| 20260505230626 | 25 | 267 | 3.2 | 9.7 | 0.00 | 0.00 | 0.00 | 46 | 1013.1 |
| 20260505230121 | 25 | 194 | 1.6 | 19.3 | 0.00 | 0.00 | 0.00 | 45 | 1013.0 |
| 20260505225618 | 25 | 199 | 9.7 | 16.1 | 0.00 | 0.00 | 0.00 | 45 | 1013.1 |
| 20260505225114 | 25 | 264 | 8.0 | 11.3 | 0.00 | 0.00 | 0.00 | 44 | 1013.2 |
| 20260505224611 | 25 | 273 | 4.8 | 11.3 | 0.00 | 0.00 | 0.00 | 44 | 1013.4 |
| 20260505224108 | 25 | 292 | 4.8 | 27.4 | 0.00 | 0.00 | 0.00 | 43 | 1013.3 |
| 20260505223605 | 26 | 270 | 8.0 | 17.7 | 0.00 | 0.00 | 0.00 | 44 | 1013.2 |
| 20260505223101 | 26 | 229 | 3.2 | 14.5 | 0.00 | 0.00 | 0.00 | 44 | 1013.4 |
| 20260505222558 | 26 | 15 | 3.2 | 25.7 | 0.00 | 0.00 | 0.00 | 44 | 1013.2 |
| 20260505222054 | 26 | 265 | 4.8 | 8.0 | 0.00 | 0.00 | 0.00 | 45 | 1013.2 |
| 20260505221551 | 25 | 231 | 4.8 | 9.7 | 0.00 | 0.00 | 0.00 | 44 | 1013.3 |
| 20260505221048 | 26 | 330 | 4.8 | 11.3 | 0.00 | 0.00 | 0.00 | 44 | 1013.5 |
| 20260505220545 | 26 | 246 | 4.8 | 17.7 | 0.00 | 0.00 | 0.00 | 44 | 1013.3 |
| 20260505220043 | 26 | 254 | 6.4 | 19.3 | 0.00 | 0.00 | 0.00 | 44 | 1013.4 |
| 20260505215541 | 26 | 283 | 8.0 | 25.7 | 0.00 | 0.00 | 0.00 | 44 | 1013.2 |
| 20260505215038 | 26 | 272 | 8.0 | 16.1 | 0.00 | 0.00 | 0.00 | 44 | 1013.1 |
| 20260505214536 | 25 | 261 | 8.0 | 17.7 | 0.00 | 0.00 | 0.00 | 44 | 1013.4 |
| 20260505214033 | 26 | 259 | 6.4 | 32.2 | 0.00 | 0.00 | 0.00 | 43 | 1013.2 |
| 20260505213531 | 26 | 224 | 11.3 | 27.4 | 0.00 | 0.00 | 0.00 | 43 | 1013.2 |
| 20260505213027 | 26 | 270 | 6.4 | 20.9 | 0.00 | 0.00 | 0.00 | 43 | 1013.4 |
| 20260505212523 | 26 | 245 | 8.0 | 20.9 | 0.00 | 0.00 | 0.00 | 42 | 1013.0 |
| 20260505212020 | 26 | 252 | 8.0 | 14.5 | 0.00 | 0.00 | 0.00 | 42 | 1013.3 |
| 20260505211518 | 27 | 244 | 0.0 | 27.4 | 0.00 | 0.00 | 0.00 | 41 | 1013.4 |
| 20260505211014 | 27 | 278 | 12.9 | 17.7 | 0.00 | 0.00 | 0.00 | 40 | 1013.2 |
| 20260505210511 | 27 | 245 | 8.0 | 16.1 | 0.00 | 0.00 | 0.00 | 40 | 1013.3 |
| 20260505210008 | 27 | 249 | 12.9 | 24.1 | 0.00 | 0.00 | 0.00 | 40 | 1013.5 |
| 20260505205506 | 27 | 243 | 8.0 | 22.5 | 0.00 | 0.00 | 0.00 | 39 | 1013.4 |
| 20260505205003 | 27 | 277 | 8.0 | 19.3 | 0.00 | 0.00 | 0.00 | 39 | 1013.4 |
| 20260505204501 | 27 | 226 | 11.3 | 20.9 | 0.00 | 0.00 | 0.00 | 39 | 1013.6 |
| 20260505203957 | 27 | 261 | 4.8 | 12.9 | 0.00 | 0.00 | 0.00 | 39 | 1013.7 |
| 20260505203454 | 27 | 262 | 6.4 | 17.7 | 0.00 | 0.00 | 0.00 | 40 | 1013.4 |
| 20260505202950 | 27 | 290 | 4.8 | 25.7 | 0.00 | 0.00 | 0.00 | 40 | 1013.4 |
| 20260505202447 | 27 | 195 | 6.4 | 22.5 | 0.00 | 0.00 | 0.00 | 40 | 1013.7 |
| 20260505201943 | 27 | 229 | 16.1 | 27.4 | 0.00 | 0.00 | 0.00 | 40 | 1013.4 |
| 20260505201440 | 27 | 218 | 8.0 | 37.0 | 0.00 | 0.00 | 0.00 | 39 | 1013.6 |
| 20260505200938 | 27 | 264 | 11.3 | 30.6 | 0.00 | 0.00 | 0.00 | 39 | 1013.6 |
| 20260505200436 | 27 | 261 | 11.3 | 19.3 | 0.00 | 0.00 | 0.00 | 40 | 1013.7 |
| 20260505195931 | 27 | 257 | 11.3 | 19.3 | 0.00 | 0.00 | 0.00 | 40 | 1013.6 |
| 20260505195428 | 26 | 246 | 16.1 | 29.0 | 0.00 | 0.00 | 0.00 | 39 | 1014.0 |
| 20260505194926 | 26 | 250 | 9.7 | 24.1 | 0.00 | 0.00 | 0.00 | 40 | 1014.1 |
| 20260505194423 | 27 | 253 | 8.0 | 17.7 | 0.00 | 0.00 | 0.00 | 39 | 1014.0 |
| 20260505193923 | 27 | 266 | 8.0 | 22.5 | 0.00 | 0.00 | 0.00 | 38 | 1014.1 |
| 20260505193421 | 27 | 248 | 8.0 | 22.5 | 0.00 | 0.00 | 0.00 | 37 | 1013.8 |
| 20260505192918 | 27 | 286 | 16.1 | 16.1 | 0.00 | 0.00 | 0.00 | 37 | 1014.1 |
| 20260505192416 | 27 | 291 | 17.7 | 19.3 | 0.00 | 0.00 | 0.00 | 38 | 1014.1 |
| 20260505191914 | 27 | 270 | 8.0 | 25.7 | 0.00 | 0.00 | 0.00 | 38 | 1014.0 |
| 20260505191412 | 27 | 200 | 6.4 | 48.3 | 0.00 | 0.00 | 0.00 | 37 | 1014.3 |
| 20260505190909 | 27 | 189 | 14.5 | 16.1 | 0.00 | 0.00 | 0.00 | 38 | 1014.2 |
| 20260505190405 | 27 | 345 | 3.2 | 25.7 | 0.00 | 0.00 | 0.00 | 38 | 1014.2 |
| 20260505185859 | 27 | 266 | 11.3 | 25.7 | 0.00 | 0.00 | 0.00 | 36 | 1014.6 |
| 20260505185356 | 27 | 342 | 3.2 | 14.5 | 0.00 | 0.00 | 0.00 | 37 | 1014.6 |
| 20260505184853 | 27 | 254 | 8.0 | 19.3 | 0.00 | 0.00 | 0.00 | 37 | 1014.5 |
| 20260505184350 | 27 | 288 | 6.4 | 22.5 | 0.00 | 0.00 | 0.00 | 37 | 1014.6 |
| 20260505183847 | 27 | 250 | 8.0 | 30.6 | 0.00 | 0.00 | 0.00 | 37 | 1014.9 |
| 20260505183344 | 28 | 311 | 3.2 | 17.7 | 0.00 | 0.00 | 0.00 | 37 | 1014.9 |
| 20260505182840 | 27 | 291 | 8.0 | 22.5 | 0.00 | 0.00 | 0.00 | 37 | 1014.9 |
| 20260505182337 | 27 | 219 | 3.2 | 32.2 | 0.00 | 0.00 | 0.00 | 37 | 1015.1 |
| 20260505181834 | 27 | 286 | 8.0 | 17.7 | 0.00 | 0.00 | 0.00 | 38 | 1015.0 |
| 20260505181331 | 27 | 316 | 6.4 | 16.1 | 0.00 | 0.00 | 0.00 | 37 | 1015.3 |
| 20260505180827 | 27 | 284 | 11.3 | 27.4 | 0.00 | 0.00 | 0.00 | 36 | 1015.3 |
| 20260505180324 | 28 | 283 | 14.5 | 25.7 | 0.00 | 0.00 | 0.00 | 36 | 1015.3 |
| 20260505175821 | 27 | 189 | 4.8 | 19.3 | 0.00 | 0.00 | 0.00 | 39 | 1015.2 |
| 20260505175317 | 28 | 238 | 12.9 | 20.9 | 0.00 | 0.00 | 0.00 | 38 | 1015.3 |
| 20260505174814 | 27 | 247 | 12.9 | 20.9 | 0.00 | 0.00 | 0.00 | 37 | 1015.2 |
| 20260505174311 | 27 | 287 | 8.0 | 16.1 | 0.00 | 0.00 | 0.00 | 37 | 1015.6 |
| 20260505173807 | 27 | 165 | 11.3 | 24.1 | 0.00 | 0.00 | 0.00 | 37 | 1015.6 |
| 20260505173303 | 27 | 325 | 4.8 | 25.7 | 0.00 | 0.00 | 0.00 | 39 | 1015.4 |
| 20260505172801 | 26 | 247 | 4.8 | 32.2 | 0.00 | 0.00 | 0.00 | 37 | 1015.7 |
| 20260505172258 | 27 | 246 | 8.0 | 20.9 | 0.00 | 0.00 | 0.00 | 37 | 1015.7 |
| 20260505171753 | 26 | 295 | 8.0 | 27.4 | 0.00 | 0.00 | 0.00 | 37 | 1015.5 |
| 20260505171250 | 26 | 208 | 8.0 | 16.1 | 0.00 | 0.00 | 0.00 | 39 | 1015.9 |
| 20260505170746 | 26 | 287 | 6.4 | 17.7 | 0.00 | 0.00 | 0.00 | 39 | 1015.9 |
| 20260505170244 | 26 | 236 | 4.8 | 24.1 | 0.00 | 0.00 | 0.00 | 40 | 1016.0 |
| 20260505165738 | 26 | 250 | 8.0 | 16.1 | 0.00 | 0.00 | 0.00 | 39 | 1015.7 |
| 20260505165235 | 26 | 237 | 4.8 | 19.3 | 0.00 | 0.00 | 0.00 | 39 | 1015.9 |
| 20260505164730 | 26 | 274 | 9.7 | 11.3 | 0.00 | 0.00 | 0.00 | 40 | 1016.1 |
| 20260505164228 | 26 | 286 | 9.7 | 20.9 | 0.00 | 0.00 | 0.00 | 39 | 1015.8 |
| 20260505163726 | 26 | 303 | 6.4 | 19.3 | 0.00 | 0.00 | 0.00 | 40 | 1015.9 |
| 20260505163224 | 25 | 284 | 8.0 | 25.7 | 0.00 | 0.00 | 0.00 | 40 | 1015.9 |
| 20260505162721 | 26 | 235 | 12.9 | 22.5 | 0.00 | 0.00 | 0.00 | 42 | 1016.0 |
| 20260505162218 | 26 | 290 | 6.4 | 11.3 | 0.00 | 0.00 | 0.00 | 44 | 1016.3 |
| 20260505161715 | 25 | 234 | 8.0 | 19.3 | 0.00 | 0.00 | 0.00 | 43 | 1016.0 |
| 20260505161213 | 25 | 255 | 4.8 | 16.1 | 0.00 | 0.00 | 0.00 | 45 | 1016.2 |
| 20260505160710 | 25 | 270 | 9.7 | 27.4 | 0.00 | 0.00 | 0.00 | 44 | 1016.3 |
| 20260505160207 | 26 | 238 | 9.7 | 24.1 | 0.00 | 0.00 | 0.00 | 44 | 1016.5 |
| 20260505153146 | 25 | 272 | 6.4 | 12.9 | 0.00 | 0.00 | 0.00 | 48 | 1016.6 |
| 20260505152643 | 25 | 228 | 8.0 | 12.9 | 0.00 | 0.00 | 0.00 | 49 | 1016.9 |
| 20260505152139 | 24 | 242 | 4.8 | 8.0 | 0.00 | 0.00 | 0.00 | 50 | 1016.8 |
| 20260505151634 | 24 | 308 | 6.4 | 12.9 | 0.00 | 0.00 | 0.00 | 52 | 1016.7 |
| 20260505151132 | 23 | 250 | 11.3 | 12.9 | 0.00 | 0.00 | 0.00 | 53 | 1016.8 |
| 20260505150628 | 23 | 197 | 4.8 | 12.9 | 0.00 | 0.00 | 0.00 | 53 | 1016.9 |
| 20260505150125 | 23 | 226 | 4.8 | 11.3 | 0.00 | 0.00 | 0.00 | 53 | 1016.8 |
| 20260505140554 | 21 | 283 | 8.0 | 12.9 | 0.00 | 0.00 | 0.00 | 59 | 1016.5 |
| 20260505125007 | 18 | 177 | 6.4 | 17.7 | 0.00 | 0.00 | 0.00 | 69 | 1016.8 |
| 20260505124504 | 18 | 208 | 4.8 | 12.9 | 0.00 | 0.00 | 0.00 | 68 | 1016.9 |
| 20260505124000 | 18 | 221 | 8.0 | 9.7 | 0.00 | 0.00 | 0.00 | 69 | 1016.7 |
| 20260505123457 | 18 | 244 | 8.0 | 20.9 | 0.00 | 0.00 | 0.00 | 68 | 1016.6 |
| 20260505122953 | 18 | 254 | 6.4 | 16.1 | 0.00 | 0.00 | 0.00 | 69 | 1017.0 |
| 20260505122450 | 17 | 224 | 3.2 | 17.7 | 0.00 | 0.00 | 0.00 | 70 | 1016.4 |
| 20260505121947 | 17 | 256 | 3.2 | 11.3 | 0.00 | 0.00 | 0.00 | 71 | 1016.6 |
| 20260505121443 | 17 | 201 | 4.8 | 14.5 | 0.00 | 0.00 | 0.00 | 70 | 1016.7 |
| 20260505120939 | 17 | 221 | 6.4 | 12.9 | 0.00 | 0.00 | 0.00 | 71 | 1016.4 |
| 20260505120436 | 17 | 221 | 4.8 | 14.5 | 0.00 | 0.00 | 0.00 | 72 | 1016.4 |
| 20260505115935 | 17 | 205 | 4.8 | 11.3 | 0.00 | 0.00 | 0.00 | 73 | 1016.4 |
| 20260505115432 | 16 | 221 | 3.2 | 12.9 | 0.00 | 0.00 | 0.00 | 73 | 1016.3 |
| 20260505114930 | 16 | 221 | 6.4 | 12.9 | 0.00 | 0.00 | 0.00 | 73 | 1016.4 |
| 20260505114426 | 16 | 223 | 0.0 | 8.0 | 0.00 | 0.00 | 0.00 | 74 | 1016.4 |
| 20260505113922 | 16 | 198 | 0.0 | 14.5 | 0.00 | 0.00 | 0.00 | 75 | 1016.5 |
| 20260505113419 | 16 | 218 | 4.8 | 8.0 | 0.00 | 0.00 | 0.00 | 75 | 1016.1 |
| 20260505112915 | 15 | 221 | 4.8 | 9.7 | 0.00 | 0.00 | 0.00 | 77 | 1016.2 |
| 20260505112413 | 15 | 219 | 6.4 | 8.0 | 0.00 | 0.00 | 0.00 | 78 | 1016.4 |
| 20260505111909 | 15 | 186 | 3.2 | 14.5 | 0.00 | 0.00 | 0.00 | 79 | 1016.3 |
| 20260505111403 | 14 | 249 | 8.0 | 12.9 | 0.00 | 0.00 | 0.00 | 82 | 1016.4 |
| 20260505110900 | 14 | 234 | 0.0 | 4.8 | 0.00 | 0.00 | 0.00 | 82 | 1016.4 |
| 20260505110357 | 14 | 106 | 4.8 | 6.4 | 0.00 | 0.00 | 0.00 | 82 | 1016.1 |
| 20260505101827 | 15 | 219 | 3.2 | 8.0 | 0.00 | 0.00 | 0.00 | 79 | 1016.0 |
| 20260505101323 | 15 | 205 | 4.8 | 6.4 | 0.00 | 0.00 | 0.00 | 79 | 1015.9 |
| 20260505100818 | 15 | 215 | 0.0 | 4.8 | 0.00 | 0.00 | 0.00 | 79 | 1015.7 |
| 20260505100316 | 15 | 242 | 3.2 | 6.4 | 0.00 | 0.00 | 0.00 | 79 | 1015.8 |
| 20260505095811 | 14 | 220 | 3.2 | 9.7 | 0.00 | 0.00 | 0.00 | 80 | 1015.9 |
| 20260505095309 | 15 | 213 | 3.2 | 4.8 | 0.00 | 0.00 | 0.00 | 80 | 1015.5 |
| 20260505094804 | 15 | 170 | 0.0 | 6.4 | 0.00 | 0.00 | 0.00 | 80 | 1015.6 |
| 20260505094302 | 15 | 161 | 3.2 | 4.8 | 0.00 | 0.00 | 0.00 | 78 | 1015.8 |
| 20260505093757 | 15 | 203 | 6.4 | 9.7 | 0.00 | 0.00 | 0.00 | 78 | 1015.6 |
| 20260505093255 | 15 | 249 | 0.0 | 4.8 | 0.00 | 0.00 | 0.00 | 77 | 1015.6 |
| 20260505092751 | 15 | 227 | 3.2 | 12.9 | 0.00 | 0.00 | 0.00 | 77 | 1015.5 |
| 20260505092250 | 15 | 247 | 0.0 | 12.9 | 0.00 | 0.00 | 0.00 | 76 | 1015.6 |